Air Resources Laboratory banner image
Air Resources Laboratory web site National Oceanic and Atmospheric Administration (NOAA)

pa roundup


Office: CTP

ASUS41 KCTP 211703
RWRCTP

REGIONAL WEATHER ROUNDUP
NATIONAL WEATHER SERVICE STATE COLLEGE PA
100 PM EDT MON MAY 21 2018

Note: "fair" indicates few or no clouds below 12,000 feet with no
significant weather and/or obstructions to visibility.

* = STATION THAT DOES NOT REPORT PRECIPITATION /E.G. RAIN...SNOW...ETC/
    THUNDER OR FOG.

PAZ002>004-007>009-013>016-020>023-029>032-211800-
WESTERN PENNSYLVANIA

CITY           SKY/WX    TMP DP  RH WIND       PRES   REMARKS
ERIE           FAIR      63  48  58 NE13      30.22F
MEADVILLE      FAIR      70  53  54 MISG      30.21F
FRANKLIN*      FAIR      71  51  49 E9        30.22F
NEW CASTLE     FAIR      73  56  54 NE6       30.20F
BEAVER COUNTY  SUNNY     73  57  56 E5        30.20F
BUTLER*        FAIR      73  55  53 SE6       30.20F
PITTSBURGH INT FAIR      75  56  51 VRB3      30.18F
PITTSBURGH     FAIR      75  60  59 VRB5      30.18F
INDIANA*       SUNNY     73  59  60 SE5G12    30.23F
LATROBE        MOSUNNY   75  59  57 NE6       30.20S
WASHINGTON CO* FAIR      76  59  55 E5        30.20F
$$

PAZ004>006-010>012-017>019-024>028-033>037-041-042-045-046-049>053-211800-
CENTRAL PENNSYLVANIA

CITY           SKY/WX    TMP DP  RH WIND       PRES   REMARKS
BRADFORD         N/A    N/A N/A N/A CALM      30.24F
DUBOIS         FAIR      67  53  61 W3        30.23F
CLEARFIELD     FAIR      69  53  56 S5        30.24F
JOHNSTOWN      FAIR      73  57  57 CALM      30.22F
ALTOONA        FAIR      74  58  57 VRB5      30.22F
STATE COLLEGE  NOT AVBL
WILLIAMSPORT   FAIR      71  47  42 VRB3      30.21F
SELINSGROVE    FAIR      70  52  52 NW5       30.23F
FT INDIANTOWN  MOSUNNY   73  55  52 CALM      30.20F
CAPITAL CITY   FAIR      75  53  46 CALM      30.20F
HARRISBURG     FAIR      73  59  61 S5        30.20F
YORK           FAIR      73  57  57 E5        30.20F
$$

PAZ038>040-043-044-047-048-054-055-060>062-067>071-211800-
EASTERN PENNSYLVANIA

CITY           SKY/WX    TMP DP  RH WIND       PRES   REMARKS
SCRANTON       FAIR      71  49  45 N6        30.21F
MOUNT POCONO   FAIR      69  42  37 N5        30.23S
ALLENTOWN      FAIR      74  50  42 NE3       30.20F
QUAKERTOWN*    SUNNY     73  50  43 VRB5      30.20F
READING        FAIR      72  55  55 CALM      30.19F
LANCASTER      FAIR      74  59  59 W6        30.20F
COATESVILLE    FAIR      72  54  53 N5        30.22F
POTTSTOWN      FAIR      72  49  44 VRB3      30.21F
BLUE BELL      FAIR      70  54  56 NE3       30.21F
DOYLESTOWN     FAIR      74  54  49 N7        30.19F
WILLOW GROVE   NOT AVBL
NORTH PHILA    FAIR      76  56  49 E3        30.20F
PHILADELPHIA   FAIR      75  51  43 N6        30.19F
$$




Office: PHI ASUS41 KPHI 211613 RWRPHI REGIONAL WEATHER ROUNDUP NATIONAL WEATHER SERVICE MOUNT HOLLY NJ 1200 PM EDT MON MAY 21 2018 NOTE: "FAIR" INDICATES FEW OR NO CLOUDS BELOW 12,000 FEET WITH NO SIGNIFICANT WEATHER AND/OR OBSTRUCTIONS TO VISIBILITY. * = STATION DOES NOT REPORT PRECIPITATION (E.G. RAIN, SNOW, ETC.) OR FOG. NJZ015>026-211700- SOUTHERN NEW JERSEY CITY SKY/WX TMP DP RH WIND PRES REMARKS POMONA FAIR 74 57 55 N9 30.20S WILDWOOD* FAIR 70 54 56 E12 30.21R MILLVILLE FAIR 74 55 51 N8 30.20S MOUNT HOLLY FAIR 71 57 61 E3 30.21S TRENTON FAIR 72 54 53 VRB3 30.20 $$ NJZ001>014-211700- NORTHERN NEW JERSEY CITY SKY/WX TMP DP RH WIND PRES REMARKS SUSSEX FAIR 70 52 52 CALM 30.21S ANDOVER* N/A 71 51 49 CALM 30.21F MORRISTOWN MOSUNNY 72 50 46 SE3 30.21S NEWARK PTSUNNY 74 45 35 VRB3 30.20S TETERBORO FAIR 73 49 42 VRB5 30.19S CALDWELL FAIR 72 46 39 CALM 30.20F SOMERVILLE FAIR 73 49 42 NW5 30.19S ALLAIRE* FAIR 69 50 50 VRB5G16 30.22S TOMS RIVER* PTSUNNY 73 53 49 NE8 30.21S $$ PAZ043-044-047-054-055-060>062-066>071-211700- EASTERN PENNSYLVANIA CITY SKY/WX TMP DP RH WIND PRES REMARKS PHILADELPHIA FAIR 72 50 45 CALM 30.21S NORTH PHILA FAIR 75 56 51 VRB3 30.22F BLUE BELL* FAIR 68 52 56 CALM 30.23F DOYLESTOWN FAIR 71 52 50 W5 30.21F QUAKERTOWN* SUNNY 72 52 49 NW6 30.22F PERKASIE* FAIR 70 54 56 NE7 30.23F POTTSTOWN FAIR 70 50 49 VRB3 30.23F LANCASTER FAIR 72 56 57 VRB5 30.22F COATESVILLE FAIR 70 54 56 NW7 30.24S READING FAIR 71 56 58 N8 30.22S ALLENTOWN FAIR 72 49 44 CALM 30.22S MOUNT POCONO FAIR 67 45 45 VRB5 30.23F HAZLETON FAIR 68 46 45 N6 30.27F LEHIGHTON FAIR 72 46 40 CALM 30.22F WILKES BARRE FAIR 69 48 47 CALM 30.23F $$ DEZALL-MDZ008-012-015-019-020-211700- DELAWARE AND EASTERN MARYLAND CITY SKY/WX TMP DP RH WIND PRES REMARKS WILMINGTON FAIR 74 54 49 MISG 30.21F GEORGETOWN FAIR 74 56 53 NE6G18 30.21S EASTON MOSUNNY 75 59 57 N6 30.24S PATUXENT FAIR 79 60 52 VRB7 30.20 OCEAN CITY FAIR 68 58 70 E12 30.22R WALLOPS ISLAND FAIR 72 58 61 NE17 30.21R CAMBRIDGE SUNNY 75 59 57 NE7 30.20S SALISBURY FAIR 76 59 55 NE9 30.19S $$ PAZ001-021-NYZ056-072-MDZ011-DCZ001-211700- OTHER NEARBY LOCATIONS CITY SKY/WX TMP DP RH WIND PRES REMARKS HARRISBURG FAIR 73 59 61 S5 30.22F WILLIAMSPORT FAIR 69 50 50 S5 30.23S BINGHAMTON FAIR 64 43 46 N6 30.24S NEW YORK CITY FAIR 74 44 34 VRB5 30.23S BALTIMORE PTSUNNY 74 57 55 SE8 30.20F WASHINGTON DC PTSUNNY 77 57 50 CALM 30.21S $$